Overview Statistics Trail Chart Weather Telemetry Raw packets
 

This is the latest recevied weather packets stored in our database for station/object KD8DNS. If no packets are shown the sender has not sent any weather packets the latest 10 day(s).

<< 44 45 46 47 48 49 50 >>
Time Temp. Humidity Pressure Rain* Wind** Luminosity Snow
1788372454 35.56° C 50% 1020.8 hPa 0 mm - 635 W/m² -
1788372150 35.56° C 52% 1020.9 hPa 0 mm - 599 W/m² -
1788371845 35.56° C 53% 1021.1 hPa 0 mm - 617 W/m² -
1788371541 35.56° C 56% 1021.1 hPa 0 mm - 647 W/m² -
1788371237 35.56° C 54% 1021 hPa 0 mm - 622 W/m² -
1788370933 35° C 53% 1021 hPa 0 mm - 671 W/m² -
1788370628 35° C 54% 1021 hPa 0 mm - 670 W/m² -
1788370322 35° C 54% 1021.1 hPa 0 mm - 631 W/m² -
1788370017 34.44° C 56% 1021.1 hPa 0 mm - 601 W/m² -
1788369716 34.44° C 56% 1021.2 hPa 0 mm - 631 W/m² -
1788369411 34.44° C 54% 1021.2 hPa 0 mm - 644 W/m² -
1788369107 34.44° C 54% 1021.4 hPa 0 mm - 613 W/m² -
1788368802 34.44° C 56% 1021.4 hPa 0 mm - 623 W/m² -
1788368497 35° C 55% 1021.2 hPa 0 mm - 658 W/m² -
1788368193 34.44° C 57% 1021.4 hPa 0 mm - 641 W/m² -
1788367887 34.44° C 55% 1021.3 hPa 0 mm - 619 W/m² -
1788367582 33.89° C 58% 1021.3 hPa 0 mm - 601 W/m² -
1788367281 33.89° C 57% 1021.6 hPa 0 mm - 570 W/m² -
1788366976 33.89° C 57% 1021.6 hPa 0 mm - 606 W/m² -
1788366675 33.89° C 58% 1021.9 hPa 0 mm - 617 W/m² -
1788366374 33.89° C 57% 1021.7 hPa 0 mm - 600 W/m² -
1788366080 33.89° C 57% 1021.8 hPa 0 mm - 598 W/m² -
1788365763 33.89° C 60% 1021.8 hPa 0 mm - 586 W/m² -
1788365460 33.33° C 61% 1022 hPa 0 mm - 585 W/m² -
1788365150 33.33° C 59% 1021.9 hPa 0 mm - 586 W/m² -

* Rain latest hour (hover to see other rain measurements)
** Current wind speed in m/s (hover to see current wind gust speed)